Regional Weather Roundup
Issued by NWS Sioux Falls, SD

Home | Current Version | Previous Version | Text Only | Print | Product List | Glossary On
Versions: 1 2 3 4 5 6 7 8 9 10 11 12 13 14 15 16 17 18 19 20 21 22 23 24 25 26 27 28 29 30 31 32 33 34 35 36 37 38 39 40 41 42 43 44 45 46 47 48 49 50
000
ASUS43 KFSD 120002
RWRFSD

WEATHER ROUNDUP FOR SE SOUTH DAKOTA/SW MINNESOTA/NW IOWA
NATIONAL WEATHER SERVICE SIOUX FALLS SD
600 PM CST MON DEC 11 2017

NOTE: "FAIR" INDICATES FEW OR NO CLOUDS BELOW 12,000 FEET WITH NO
SIGNIFICANT WEATHER AND OR OBSTRUCTIONS TO VISIBILITY.


SDZ038>040-050-052>070-120100-
SOUTHEAST SOUTH DAKOTA

CITY           SKY/WX    TMP DP  RH WIND       PRES   REMARKS
BROOKINGS      CLEAR     21  16  81 N20G25    30.24R WCI   6
CHAMBERLAIN    MOCLDY    37  29  75 NW14      30.32R
6HR MIN TEMP:  37; 6HR MAX TEMP:  41;

HURON          CLEAR     25  17  72 N13       30.32R WCI  14
6HR MIN TEMP:  25; 6HR MAX TEMP:  39;

MADISON        FAIR      23  23 100 N15       30.25R WCI  10
MITCHELL       CLEAR     30  23  75 N21       30.31R WCI  17
6HR MIN TEMP:  30; 6HR MAX TEMP:  41;

SIOUX FALLS    PTCLDY    27  21  78 N14       30.23R WCI  16
6HR MIN TEMP:  27; 6HR MAX TEMP:  39;

WINNER         CLOUDY    38  31  76 NW16      30.32R
YANKTON        CLEAR     32  26  78 NW15G24   30.26R WCI  22
$$

MNZ071-072-080-081-089-090-097-098-120100-
SOUTHWEST MINNESOTA

CITY           SKY/WX    TMP DP  RH WIND       PRES   REMARKS
FAIRMONT       CLOUDY    25  19  78 NW31G40   30.10R WCI   8
JACKSON        CLOUDY    23  18  80 MISG      30.13R
LUVERNE        CLEAR     27  19  74 N15G22    30.21R WCI  15
MARSHALL       CLEAR     20  14  77 N24G31    30.22R WCI   3
6HR MIN TEMP:  20; 6HR MAX TEMP:  31;

MONTEVIDEO     CLEAR     18  12  79 N22G29    30.24R WCI   0
PIPESTONE      CLEAR     21  18  86 N18G28    30.20R WCI   6
REDWOOD FALLS  CLOUDY    22  13  68 NW21G33   30.18R WCI   6
TRACY          MOCLDY    22  16  79 NW22G33   30.20R WCI   6
WINDOM           N/A     23  10  58 NW26G32   30.14R WCI   6
WORTHINGTON    MOCLDY    22  17  81 N18G25    30.17R WCI   7
$$

IAZ001>003-012>014-020>022-031-032-NEZ013-014-SDZ071-120100-
NORTHWEST IOWA

CITY           SKY/WX    TMP DP  RH WIND       PRES   REMARKS
CHEROKEE       MOCLDY    29  23  76 N15G25    30.17R WCI  18
DENISON        CLOUDY    32  23  69 N16G23    30.16R WCI  21
ESTHERVILLE    CLOUDY    23  18  81 N24G40    30.13R WCI   7
LE MARS        CLEAR     30  23  74 N17       30.20R WCI  18
ORANGE CITY    CLEAR     28  25  86 NW15G23   30.18R WCI  17
SHELDON        MOCLDY    27  21  80 N21       30.16R WCI  13
SIOUX CITY     CLEAR     34  24  67 N23       30.20R WCI  22
6HR MIN TEMP:  34; 6HR MAX TEMP:  43;

SPENCER        MOCLDY    25  17  72 N28G39    30.15R WCI   9
6HR MIN TEMP:  25; 6HR MAX TEMP:  39;

STORM LAKE     CLOUDY    28  21  74 N23G31    30.13R WCI  14
$$

ABBREVIATIONS USED IN REMARKS
   TC - TEMPERATURE IN CELSIUS
  WCI - WIND CHILL INDEX
   HX - HEAT INDEX
  VSB - VISIBILITY




USA.gov is the U.S. government's official web portal to all federal, state and local government web resources and services.